Temp
9 10 10 9 9 8 8 8 8 7 8 8 7 6 4 4 3 2 1 1 -0 -1 -1 -2 -2 -2 -2 -2 -1 -1 -1 0 1 2 4 4 6 7 10 12 13 13 13
9 8 8 9 9 8 8 7 7 7 7 7 6 5 4 2 2 1 1 -0 -1 -1 -2 -2 -3 -3 -3 -2 -2 -2 -1 -0 1 2 3 4 8 8 9 11 12 13 14
10 8 7 8 8 8 7 7 7 7 6 5 5 5 4 2 1 1 0 -0 -1 -2 -2 -3 -3 -3 -3 -3 -2 -2 -1 -1 -1 1 2 5 7 6 10 11 11 12 12
10 9 7 6 7 7 7 7 6 6 5 4 4 3 1 -0 -2 -2 -1 -1 -2 -3 -3 -3 -4 -4 -4 -3 -3 -2 -2 -2 -1 -0 1 2 3 5 7 9 10 12 12
10 8 7 7 7 7 7 6 6 5 4 3 2 2 1 -1 -1 -1 -1 -2 -3 -3 -4 -4 -5 -5 -4 -4 -3 -3 -2 -2 -1 -1 -0 1 2 3 4 6 8 9 10
9 8 7 7 6 6 6 5 5 4 3 2 1 1 -0 -1 -1 -2 -3 -3 -4 -4 -4 -5 -5 -5 -4 -4 -4 -3 -3 -2 -2 -1 -0 0 2 4 5 6 7 7 8
8 7 5 4 5 5 5 5 4 3 2 1 1 0 -1 -2 -2 -3 -4 -5 -4 -4 -5 -5 -5 -5 -5 -5 -4 -4 -4 -4 -3 -2 -1 -0 1 2 3 3 5 6 7
8 7 6 5 4 4 5 4 4 2 1 1 -0 -1 -1 -2 -3 -4 -4 -4 -4 -5 -5 -5 -6 -6 -6 -5 -5 -5 -5 -5 -4 -3 -2 -1 1 1 2 3 4 6 7
8 7 6 4 4 4 4 4 3 1 0 -0 -1 -1 -2 -3 -3 -4 -4 -4 -4 -5 -5 -5 -5 -6 -5 -5 -5 -6 -6 -6 -5 -4 -4 -3 -2 -1 1 3 4 5 6
8 6 5 4 4 4 3 3 2 1 -0 -1 -1 -2 -3 -4 -4 -4 -5 -4 -5 -4 -4 -5 -6 -5 -6 -6 -5 -6 -6 -6 -6 -5 -4 -4 -3 -2 -1 0 3 4 6
8 5 5 3 3 3 2 1 0 0 -1 -1 -2 -3 -4 -4 -4 -4 -5 -5 -5 -5 -5 -6 -6 -6 -6 -6 -6 -6 -7 -6 -6 -6 -5 -4 -4 -4 -3 -1 1 3 4
7 4 2 1 1 1 0 -0 -0 -1 -1 -2 -3 -4 -4 -4 -4 -4 -5 -5 -5 -5 -6 -6 -7 -7 -7 -7 -7 -7 -7 -8 -7 -6 -5 -5 -5 -5 -4 -3 -2 -1 -0
3 1 -0 -0 -1 -1 -1 -1 -1 -1 -3 -3 -3 -4 -4 -5 -5 -5 -5 -5 -5 -5 -6 -6 -7 -7 -7 -7 -8 -8 -8 -8 -8 -7 -6 -6 -5 -6 -5 -5 -4 -3 -3
5 1 0 -1 -2 -2 -2 -2 -2 -3 -3 -3 -4 -4 -5 -5 -5 -6 -6 -6 -6 -6 -6 -6 -7 -7 -8 -7 -8 -8 -8 -8 -8 -8 -7 -6 -6 -6 -6 -6 -6 -5 -5
4 3 1 -1 -3 -3 -3 -3 -4 -4 -3 -4 -4 -5 -5 -5 -6 -6 -6 -6 -6 -6 -6 -6 -7 -8 -8 -8 -8 -9 -9 -9 -9 -9 -8 -8 -7 -6 -6 -7 -7 -7 -6
6 4 2 -1 -2 -3 -4 -4 -4 -4 -4 -5 -5 -6 -6 -6 -6 -6 -6 -7 -7 -7 -7 -7 -7 -8 -8 -8 -8 -8 -9 -9 -9 -9 -9 -9 -9 -9 -8 -7 -7 -8 -8
6 4 3 1 -1 -2 -2 -3 -4 -4 -5 -5 -6 -6 -6 -6 -6 -6 -7 -7 -7 -7 -7 -8 -8 -8 -8 -8 -8 -8 -9 -9 -9 -9 -10 -9 -9 -10 -11 -11 -10 -9 -9
6 4 3 1 -1 -1 -2 -3 -4 -5 -5 -6 -6 -6 -6 -6 -7 -7 -7 -7 -7 -7 -8 -8 -8 -8 -8 -8 -8 -8 -8 -9 -9 -9 -9 -10 -10 -10 -10 -10 -10 -10 -10
4 3 2 0 -0 -1 -2 -3 -4 -5 -5 -6 -6 -6 -6 -6 -7 -7 -7 -7 -8 -8 -8 -8 -8 -8 -8 -8 -8 -8 -8 -9 -9 -9 -9 -9 -10 -10 -11 -10 -10 -11 -12
4 2 1 1 -0 -2 -2 -3 -5 -5 -5 -5 -5 -6 -6 -6 -6 -7 -7 -8 -8 -8 -8 -8 -8 -8 -7 -7 -8 -8 -9 -9 -9 -9 -9 -9 -10 -10 -11 -11 -11 -12 -12
2 2 1 0 -0 -1 -2 -4 -4 -5 -4 -4 -5 -5 -5 -5 -5 -6 -7 -8 -8 -8 -9 -9 -9 -8 -8 -8 -8 -9 -9 -9 -9 -10 -10 -10 -10 -11 -11 -12 -13 -13 -12
-1 0 -0 -0 -1 -1 -1 -4 -4 -3 -3 -4 -5 -5 -5 -5 -5 -5 -6 -7 -8 -9 -9 -9 -10 -9 -9 -9 -8 -8 -9 -10 -10 -10 -11 -11 -10 -11 -12 -13 -13 -13 -12
-2 -1 -1 -2 -2 -1 -1 -3 -2 -3 -4 -4 -5 -5 -5 -5 -5 -5 -5 -6 -7 -8 -9 -10 -10 -10 -9 -9 -9 -9 -9 -10 -11 -11 -12 -12 -13 -13 -13 -13 -14 -13 -13
-3 -2 -2 -4 -4 -2 -2 -0 -1 -3 -3 -4 -5 -5 -6 -6 -6 -5 -5 -6 -7 -8 -9 -10 -10 -9 -9 -9 -9 -9 -10 -10 -11 -11 -12 -13 -13 -13 -14 -14 -14 -15 -15
-3 -3 -3 -4 -4 -3 -3 -2 -2 -3 -4 -5 -6 -6 -6 -6 -6 -6 -6 -6 -6 -7 -8 -9 -10 -9 -9 -9 -10 -10 -11 -11 -12 -12 -12 -13 -14 -14 -15 -15 -15 -15 -16
-3 -3 -3 -3 -4 -4 -3 -3 -3 -4 -5 -6 -7 -7 -6 -7 -7 -7 -8 -8 -7 -8 -9 -10 -10 -9 -9 -9 -9 -10 -11 -13 -12 -12 -14 -15 -15 -16 -16 -16 -16 -16 -17
Height
810 813 815 817 818 821 823 825 826 826 825 824 823 822 821 820 818 815 812 809 806 803 800 797 795 791 787 784 780 775 770 765 762 755 745 736 730 725 722 723 724 725 728
809 813 815 817 820 820 821 821 823 825 825 823 822 822 822 820 818 816 812 809 806 803 800 797 794 790 786 781 778 774 769 766 763 758 750 735 722 718 714 713 714 717 720
804 809 812 815 818 821 822 822 822 822 823 824 824 823 821 820 816 813 811 809 807 804 801 797 794 789 785 781 778 774 770 766 763 760 758 742 728 727 713 711 709 713 717
799 805 808 812 815 818 821 822 823 824 824 824 823 821 820 820 819 817 814 811 808 804 801 798 794 790 785 781 777 773 769 766 761 757 755 751 748 738 726 714 714 713 715
790 797 801 807 812 815 817 819 820 822 823 824 824 821 820 820 819 816 813 810 807 806 802 798 795 791 785 780 776 771 767 763 759 755 751 748 744 742 739 727 719 718 718
788 795 800 806 809 812 814 816 819 821 822 825 824 821 819 818 816 815 813 810 808 806 803 799 795 791 784 780 774 770 766 761 757 751 746 744 742 736 735 733 726 724 720
785 792 798 802 806 808 811 814 817 819 823 824 822 821 819 817 816 815 813 811 809 806 803 800 795 790 786 780 774 770 765 761 756 749 741 740 739 737 735 734 731 726 724
780 787 794 799 802 805 808 813 816 818 822 821 821 820 819 817 816 816 815 812 809 806 804 799 795 791 786 780 775 770 765 761 755 749 743 737 734 734 733 732 731 726 725
776 784 791 796 800 803 806 811 814 818 819 820 820 819 817 816 816 816 815 812 808 806 803 799 794 791 787 781 776 771 766 761 756 750 744 738 734 730 728 726 727 727 725
775 782 788 793 797 801 805 809 814 815 817 819 819 818 818 818 818 817 814 810 808 807 802 800 795 791 788 784 778 774 769 764 758 752 746 740 734 730 726 723 722 723 724
768 776 783 790 795 800 804 809 813 814 817 817 817 817 818 818 817 815 812 811 809 806 804 801 797 792 790 786 782 777 772 767 761 755 749 742 737 732 727 723 722 721 722
767 774 781 787 794 798 805 808 810 812 814 815 816 817 818 817 815 813 813 812 809 808 807 803 800 796 793 790 785 781 776 771 765 760 753 747 741 735 730 726 725 724 723
772 777 782 786 791 798 802 805 807 811 813 815 816 815 816 815 814 815 815 812 811 810 809 805 803 800 796 794 789 785 780 776 771 766 760 755 748 742 737 733 729 729 728
766 775 781 784 789 794 799 803 807 811 812 815 815 816 816 816 815 818 815 812 813 812 811 808 806 804 801 798 794 789 785 781 777 772 768 762 756 751 745 741 737 735 734
765 769 775 781 786 792 797 803 807 809 811 814 815 817 816 816 818 820 815 813 814 814 813 810 809 808 806 804 799 794 789 786 782 778 774 770 767 761 756 750 747 744 742
757 762 772 778 782 788 794 799 803 807 810 814 816 817 817 818 819 819 816 815 817 817 817 813 812 811 810 809 805 800 796 791 787 783 780 776 772 768 765 762 758 754 752
747 754 762 769 776 782 788 793 799 806 809 812 814 816 818 819 820 819 818 819 819 819 819 816 815 813 814 812 810 806 802 798 794 791 786 783 779 775 772 769 766 764 763
744 751 759 766 772 778 785 791 798 803 807 810 813 815 818 819 820 820 821 822 822 822 821 820 819 818 817 816 814 811 806 804 801 798 795 791 787 784 779 775 772 770 771
739 745 753 761 768 775 782 789 796 801 805 808 811 814 817 818 820 822 823 825 825 824 823 822 822 821 820 819 817 814 811 808 806 804 802 799 796 793 788 782 779 779 778
741 746 753 760 767 773 779 786 793 798 802 806 808 812 814 817 819 821 824 826 827 826 826 825 824 824 822 821 821 817 815 812 811 809 808 806 804 801 796 791 789 786 788
741 746 753 756 763 770 777 784 790 795 799 804 807 810 813 815 818 821 823 826 828 828 827 827 826 825 824 824 823 821 819 817 815 814 813 812 810 807 804 801 797 796 795
743 748 752 757 763 769 775 782 787 792 798 802 806 809 811 814 817 820 823 825 827 828 829 828 828 828 827 826 825 824 823 822 819 819 819 817 816 813 810 808 807 804 800
743 746 750 756 763 768 773 779 784 791 797 801 805 808 810 813 816 819 821 824 826 828 828 829 829 829 828 828 827 827 825 824 823 823 823 821 819 817 815 814 812 809 806
744 746 751 757 762 767 772 776 782 789 795 799 803 806 808 812 815 818 820 822 824 826 827 828 829 829 830 830 829 828 827 826 825 825 824 823 822 820 818 816 815 813 811
743 747 750 755 760 765 770 775 781 787 792 797 801 804 807 810 814 817 819 821 824 825 826 828 829 830 830 830 830 829 828 828 827 827 826 825 823 822 820 819 818 817 815
741 746 750 754 758 763 768 774 780 784 789 794 798 802 805 809 813 815 818 821 823 824 826 828 829 831 831 831 832 831 831 830 829 828 828 827 826 824 823 822 820 819 818
Wind_Speed
11 20 21 19 17 13 11 10 8 10 10 11 9 7 12 15 18 19 21 23 24 24 24 24 24 25 23 23 23 23 25 23 23 23 20 21 26 33 35 35 34 34 28
10 15 22 20 15 15 12 11 9 8 10 12 11 7 8 8 15 19 22 23 24 24 24 25 26 28 24 23 24 23 22 19 18 15 20 6 6 7 19 25 30 36 32
15 13 18 19 18 15 13 11 9 7 8 9 7 7 5 7 17 21 22 23 24 24 25 24 26 26 21 21 22 22 18 19 20 17 9 4 3 9 7 6 18 23 25
13 12 17 21 21 17 13 11 8 5 6 7 8 11 12 10 12 16 19 21 23 26 28 24 24 23 21 20 22 20 22 19 19 18 15 16 16 4 5 10 11 12 3
17 16 19 25 22 20 17 13 9 6 6 7 8 9 10 10 11 14 18 19 21 22 26 23 22 21 20 22 22 22 21 21 21 20 17 15 17 16 5 8 8 19 12
14 12 21 25 24 20 19 15 10 7 4 3 6 8 9 9 12 14 17 17 19 20 24 22 21 20 22 21 20 20 19 20 21 21 21 17 10 7 5 5 6 6 6
15 14 15 20 25 24 21 16 11 8 5 2 5 7 8 8 10 12 13 12 13 18 21 21 21 22 21 18 18 19 19 19 20 22 16 17 16 16 17 12 7 4 7
15 15 17 20 24 25 21 16 13 11 7 3 5 5 6 8 9 9 9 11 11 14 15 19 21 21 20 19 17 18 18 19 20 22 20 14 11 16 18 15 9 4 2
15 15 18 20 23 24 21 18 14 12 8 5 4 4 6 7 7 8 7 10 12 13 14 18 20 19 19 19 20 21 23 23 24 23 24 17 14 10 10 12 14 8 2
13 11 16 20 23 24 21 16 14 13 9 6 4 5 6 6 6 7 9 11 11 12 15 20 20 19 19 18 20 22 23 25 28 26 26 23 18 12 10 8 3 13 7
15 12 16 19 25 23 20 19 16 13 10 6 5 6 5 5 5 8 10 9 9 13 15 20 21 20 18 18 18 19 23 26 28 31 27 27 23 17 15 10 8 7 3
10 10 15 20 23 24 22 20 16 12 9 8 8 8 6 5 6 8 8 8 11 11 14 19 22 21 19 18 20 20 22 25 27 29 29 31 27 26 23 18 16 14 9
9 9 13 17 21 24 22 18 15 14 13 11 10 9 7 5 7 7 7 8 9 11 12 17 22 23 21 18 19 21 21 23 26 28 29 31 31 29 27 25 23 20 18
13 11 10 14 19 22 21 18 16 15 14 12 10 9 7 6 6 5 7 9 9 11 12 14 17 21 24 21 20 21 22 24 26 26 28 30 34 33 29 28 26 24 22
12 13 13 12 17 20 20 18 17 15 13 12 12 12 10 7 6 6 10 12 10 11 13 14 16 18 21 22 23 24 24 24 25 26 24 26 28 31 36 34 31 27 24
13 13 12 16 19 21 24 20 19 17 15 15 16 14 12 9 11 10 12 13 13 13 13 17 18 19 19 19 21 27 29 28 27 25 26 24 26 26 29 34 36 36 28
14 15 16 19 22 24 27 25 22 20 18 17 17 16 15 15 14 14 15 16 16 15 16 18 18 19 18 18 19 22 29 32 31 31 28 27 26 24 24 28 30 35 34
10 11 14 19 23 26 25 23 23 22 20 19 18 18 17 16 15 15 15 16 16 17 17 17 18 19 17 16 17 21 25 26 30 31 30 30 28 25 25 31 32 34 34
8 14 20 23 25 27 27 26 25 23 21 21 20 20 19 18 15 13 13 14 14 14 15 16 15 15 16 16 15 19 23 26 28 29 27 29 28 24 24 30 32 33 31
16 21 24 24 27 27 28 29 26 25 23 23 22 21 20 18 16 15 13 12 10 11 11 12 13 13 13 12 14 17 20 23 24 27 27 25 25 24 25 30 29 31 27
16 22 26 28 30 30 30 29 28 28 25 22 21 21 20 18 17 15 15 13 10 9 9 9 9 10 13 12 10 12 17 19 22 23 24 24 23 24 25 26 28 24 23
17 23 26 26 29 31 31 29 29 27 24 23 22 21 19 18 17 15 13 17 11 7 5 7 9 9 9 10 10 11 12 13 19 20 18 17 18 22 22 25 23 24 27
18 24 26 27 29 31 32 30 27 26 26 24 23 21 19 16 15 14 15 20 16 11 6 6 9 10 12 11 12 10 10 12 16 15 15 15 16 17 20 19 21 26 28
15 22 24 23 28 31 30 27 26 28 27 26 24 21 19 17 15 14 16 20 20 14 9 10 10 10 11 9 8 7 8 9 10 11 13 14 15 18 19 21 20 21 22
17 22 21 20 25 30 27 25 29 30 29 26 25 22 20 18 16 15 16 17 15 11 12 12 12 11 9 7 7 8 8 9 9 9 12 14 16 18 19 20 19 19 19
19 18 19 20 25 28 27 26 30 30 29 26 22 21 22 19 17 17 13 9 10 10 11 12 11 9 5 10 9 9 9 8 4 10 14 15 15 16 16 16 17 17 17
Wind_Direction
169 162 153 145 138 132 125 110 92 63 44 41 37 23 28 24 25 23 20 17 13 9 4 359 352 348 335 327 325 321 319 320 319 312 310 303 284 267 263 262 255 253 250
157 159 158 154 150 143 140 129 100 64 41 35 33 29 28 9 21 21 20 18 14 8 2 356 351 346 337 334 330 323 315 313 323 315 304 293 323 305 265 249 246 249 248
167 165 164 164 153 153 148 132 107 71 49 36 28 35 31 18 14 16 16 17 15 12 6 358 349 349 346 330 327 324 320 319 313 307 292 314 313 343 321 319 244 244 248
173 163 167 165 161 155 150 137 114 93 59 37 33 42 47 42 22 15 15 16 18 15 6 359 348 351 350 338 331 323 321 315 306 303 286 282 286 310 324 331 8 49 285
172 172 170 168 162 156 153 146 137 112 67 32 39 46 49 42 24 17 15 16 18 15 1 1 354 348 348 343 338 334 326 317 302 292 289 282 286 267 267 302 312 331 1
166 155 160 165 160 157 156 149 145 120 83 39 42 42 46 37 26 21 14 10 12 9 2 356 353 346 356 345 346 343 341 336 330 310 284 271 269 286 261 252 293 329 335
155 154 161 164 160 160 158 153 156 137 140 102 49 44 47 38 34 25 16 9 6 8 4 358 356 359 354 355 3 357 357 350 344 343 325 275 266 268 277 286 298 297 327
158 164 168 166 166 164 158 162 158 154 160 114 70 57 55 52 44 29 23 22 19 2 2 9 10 7 5 11 14 8 9 3 2 357 355 339 296 266 270 264 266 276 273
159 167 169 169 165 166 167 169 164 165 162 141 114 84 64 60 52 36 34 30 30 20 20 24 18 14 16 23 28 23 22 20 18 8 6 0 347 329 301 273 239 257 269
162 165 166 164 170 170 166 166 176 167 166 162 127 87 75 67 54 40 43 39 49 36 34 32 25 26 25 28 33 31 34 28 22 12 10 14 7 356 346 332 334 235 232
177 167 166 162 166 169 168 172 172 165 166 155 126 116 111 94 68 54 51 51 62 50 43 41 32 34 32 32 35 35 36 32 22 21 17 19 22 20 21 23 25 46 31
166 155 148 149 160 168 173 174 169 169 169 160 148 134 125 109 69 55 55 62 66 62 55 49 40 41 40 40 42 40 39 30 20 18 23 23 25 29 33 39 44 42 31
148 148 149 161 162 173 175 173 173 177 171 165 158 143 128 107 72 56 66 79 76 72 67 57 44 45 43 45 50 50 46 43 36 25 26 30 32 33 33 38 43 47 48
173 167 166 168 167 175 175 173 175 179 171 169 155 147 130 105 86 83 82 88 82 77 74 69 51 49 45 46 53 55 52 51 43 41 33 37 39 41 41 43 43 49 53
176 184 178 168 164 170 176 178 179 174 174 171 162 157 136 117 123 107 88 91 90 82 80 79 70 54 51 40 48 57 58 50 46 43 40 44 47 50 51 51 49 51 55
193 182 171 169 172 171 178 178 179 176 178 175 167 159 151 137 132 107 96 98 96 91 86 79 73 67 57 52 51 59 60 58 50 41 42 42 46 53 55 58 58 58 56
178 176 183 181 174 175 181 180 182 178 178 175 169 164 157 138 118 110 102 103 99 95 87 82 76 70 63 57 55 60 62 60 57 54 50 47 48 55 57 61 64 60 59
167 173 173 172 172 181 183 183 181 180 179 176 174 170 167 153 132 116 109 109 105 97 91 86 79 74 66 60 59 69 69 64 61 55 55 53 51 48 64 68 69 68 59
166 175 171 164 170 175 181 180 177 179 180 181 180 176 174 165 157 142 126 116 113 106 95 90 88 82 72 60 58 73 72 71 65 61 52 55 51 49 60 73 72 68 66
164 155 161 168 170 173 178 176 176 180 184 186 183 181 178 176 175 172 155 134 121 113 106 94 87 81 76 61 55 64 73 72 69 67 60 55 56 53 54 66 67 64 59
158 164 169 169 174 175 177 175 181 188 189 184 182 181 181 180 175 174 178 164 140 116 98 95 93 89 75 66 60 64 71 74 73 69 64 58 56 57 55 57 59 62 72
154 168 162 171 176 179 180 178 187 193 187 184 182 179 176 176 177 183 189 189 174 145 111 99 89 90 82 56 72 76 76 81 79 73 68 65 61 60 59 58 57 66 69
161 171 169 172 177 183 188 184 192 186 185 185 184 181 181 188 193 195 191 186 184 174 146 121 109 95 82 86 91 81 86 96 86 79 75 73 70 74 73 59 59 61 60
167 171 168 165 175 185 192 195 183 182 182 183 180 179 182 184 188 194 196 191 189 182 172 152 135 118 102 90 83 93 98 100 93 88 85 84 80 75 74 69 66 63 57
172 176 170 171 179 186 189 191 185 183 183 182 178 179 182 181 177 182 185 186 193 206 182 159 144 130 113 110 95 85 99 101 98 97 87 75 69 64 62 60 59 59 57
172 172 177 174 179 184 188 189 188 189 187 179 174 175 180 175 174 170 157 166 183 171 156 146 135 119 97 130 112 101 96 97 97 87 80 72 65 60 53 51 50 51 50